Location: Newark
(36.2667°N, 50.0000°E)
Time: 22:31:52
(UTC+00:00)

Hubble Space Telescope - Pass Details

Date: 03 October 2020
Orbit: 536 x 540 km, 28.5° (Epoch: 26 October)

Event Time Altitude Azimuth Distance (km) Brightness Sun altitude
Exits shadow 01:44:09 12° 233° (SW) 1,661 2.8 -11.5°
Maximum altitude 01:46:26 18° 196° (SSW) 1,364 2.6 -11.0°
Drops below altitude 10° 01:49:13 10° 153° (SSE) 1,774 3.7 -10.4°
Sets 01:52:02 0° 133° (SE) 2,662 5.0 -9.9°
